STARLINK-5172, 54064

Orbit data source: Space-Track

STARLINK-5172, 54064 is a payload satellite owned by SpaceX/Seattle (US) in LEO that was launched on Thu, 20 Oct 2022 UTC via an FALCON 9 launch vehicle from the Air Force Eastern Test Range (AFETR). Payload-class satellites include a variety of spacecraft equipped with specific instruments for various scientific and technological missions. These include communications satellites like Starlink; space stations such as the ISS; scientific satellites like the Hubble; Earth observation satellites from companies like Planet Labs, Umbra, and HawkEye 360; GPS; miniature CubeSats for education and research; and military/defense satellites.

Loading next visibility...
Identifier
54064, 2022-136P
Orbit
LEO
Country
Flag of USUS
Related business
Manufacturer
SpaceX/Seattle
Mission
Operational Commercial Communications
Bus & Motor
STARLINK, Unknown motor
Mass
305 kg wet, ~290 kg dry
Launch date (UTC)
2022-10-20 (3 years ago)
Launch vehicle
FALCON 9
Launch site
Air Force Eastern Test Range (AFETR)
Object type
Payload
Rocket body
Debris
Shape & HBR
Box + 1 Pan, 10.1 m
Radar Cross Section
13.562 m², Large (>1 m²)

Expand to show TLE details & history
Last TLE update: 9 hours ago

TLE from 9 hours ago
0 STARLINK-5172
1 54064U 22136P   25303.93384730  .00000391  00000-0  42642-4 0  9998
2 54064  53.2164 161.7961 0001285  87.2923 272.8216 15.08841713167886
Epoch: 2025-10-30T22:24Z
TLE epoch observation values (Epoch: 2025-10-30T22:24:44.406Z)
Latitude
-0.00005°
Longitude
146.12552°
Altitude
540.592 km
Speed
7.593 km/s
True Right ascension
10h 47m 11s
True Declination
0° 00' 00"
Sunlit
Object was in daylight at epoch
Visualization orbit readout
Latitude
Unknown
Longitude
Unknown
Altitude
Unknown
Speed
Unknown
Apparent Right ascension
Unknown
Apparent Declination
Unknown
Sunlit
N/A
Visualization observer readout
Local Sidereal Time
02:47:17
Azimuth
Unknown
Elevation
Unknown
Doppler factor
Unknown
Orbital elements
Apogee altitude
540.872 km
Perigee altitude
539.094 km
Semi-major axis
6,918.12 km
Eccentricity
0.00013
Inclination
53.2164°
RAAN
161.7961°
Arg. of periapsis
87.2923°
True anomaly
272.80689°
Mean anomaly
272.8216°
Eccentric anomaly
272.81425°
Mean motion
3.77191 °/min
Orbital period
95.44 mins
BSTAR
0.000042642
Loading maneuver chart data...
Computing Atmospheric mass density...

Documentation

Showing up to 5 results
|